Weather History for Budapest Ferihegy, Hungary

Change the Weather History Date:

Monday, April 28, 2014

  Actual Average Record
Temperature  
Mean Temperature 60 °F -  
Max Temperature 73 °F 69 °F 84 °F (2012)
Min Temperature 46 °F 46 °F 37 °F (2001)
Degree Days  
Heating Degree Days 6    
Growing Degree Days 10 (Base 50)    
Moisture  
Dew Point 48 °F    
Average Humidity 70    
Maximum Humidity 100    
Minimum Humidity 38    
Precipitation  
Precipitation 0.00 in - - ()
Sea Level Pressure  
Sea Level Pressure 29.71 in    
Wind  
Wind Speed 4 mph ()    
Max Wind Speed 12 mph    
Max Gust Speed -    
Visibility 6.2 miles    
Events Rain , Thunderstorm    
Averages and records for this station are not official NWS values.
T = Trace of Precipitation, MM = Missing Value Source: Averaged Metar Reports

Daily Weather History Graph

Daily Weather History Graph

Search for Another Location

Airport:

Trip Planner

Search our weather history database for the weather conditions in past years. The results will help you decide how hot, cold, wet, or windy it might be!

Date:

Astronomy

Apr. 28, 2014 Rise Set
Actual Time 5:31 AM CEST 7:50 PM CEST
Civil Twilight 4:57 AM CEST 8:24 PM CEST
Nautical Twilight 4:15 AM CEST 9:06 PM CEST
Astronomical Twilight 3:28 AM CEST 9:54 PM CEST
Moon 5:03 AM CEST (4/28) 7:05 PM CEST (4/28)
Length of Visible Light 15h 26m
Length of Day
14h 18m
Waning Crescent, 1% of the Moon is Illuminated
Apr 28
Waning Crescent
Apr 29
New
May 7
First Quarter
May 14
Full
May 21
Last Quarter

Hourly Weather History & Observations

Time (CEST) Temp. Windchill Dew Point Humidity Pressure Visibility Wind Dir Wind Speed Gust Speed Precip Events Conditions
12:00 AM 57.2 °F - 50.0 °F 77% 29.74 in - NE 6.9 mph - N/A   Clear
12:30 AM 55.4 °F - 50.0 °F 82% 29.74 in - Variable 3.5 mph - N/A   Clear
1:00 AM 55.4 °F - 51.8 °F 88% 29.74 in - Variable 1.2 mph - N/A   Clear
1:30 AM 50.0 °F - 48.2 °F 94% 29.74 in - Variable 3.5 mph - N/A   Clear
2:00 AM 50.0 °F - 50.0 °F 100% 29.74 in - South 4.6 mph - N/A   Clear
2:30 AM 50.0 °F - 50.0 °F 100% 29.74 in - Variable 3.5 mph - N/A   Clear
3:00 AM 48.2 °F - 48.2 °F 100% 29.74 in 6.2 mi Variable 2.3 mph - N/A   Scattered Clouds
3:30 AM 46.4 °F 44.3 °F 46.4 °F 100% 29.74 in 6.2 mi North 4.6 mph - N/A   Scattered Clouds
4:00 AM 46.4 °F 45.2 °F 46.4 °F 100% 29.74 in - Variable 3.5 mph - N/A   Clear
4:30 AM 46.4 °F - 46.4 °F 100% 29.74 in - Variable 2.3 mph - N/A   Clear
5:00 AM 46.4 °F - 46.4 °F 100% 29.74 in - Variable 1.2 mph - N/A   Clear
5:30 AM 48.2 °F - 46.4 °F 93% 29.74 in - Variable 2.3 mph - N/A   Clear
6:00 AM 50.0 °F - 50.0 °F 100% 29.74 in - Variable 2.3 mph - N/A   Clear
6:30 AM 50.0 °F - 50.0 °F 100% 29.74 in - Variable 2.3 mph - N/A   Clear
7:00 AM 51.8 °F - 51.8 °F 100% 29.74 in - Calm Calm - N/A   Clear
7:30 AM 53.6 °F - 53.6 °F 100% 29.74 in - Variable 2.3 mph - N/A   Clear
8:00 AM 57.2 °F - 53.6 °F 88% 29.74 in - Variable 2.3 mph - N/A   Clear
8:30 AM 59.0 °F - 51.8 °F 77% 29.74 in - Variable 1.2 mph - N/A   Clear
9:00 AM 60.8 °F - 46.4 °F 59% 29.74 in - Variable 3.5 mph - N/A   Clear
9:30 AM 62.6 °F - 44.6 °F 52% 29.74 in - South 5.8 mph - N/A   Clear
10:00 AM 62.6 °F - 46.4 °F 55% 29.74 in - Variable 3.5 mph - N/A   Clear
10:30 AM 64.4 °F - 46.4 °F 52% 29.74 in 6.2 mi SSW 4.6 mph - N/A   Partly Cloudy
11:00 AM 66.2 °F - 46.4 °F 49% 29.74 in 6.2 mi Variable 2.3 mph - N/A   Partly Cloudy
11:30 AM 68.0 °F - 48.2 °F 49% 29.71 in 6.2 mi West 5.8 mph - N/A   Partly Cloudy
12:00 PM 68.0 °F - 46.4 °F 46% 29.71 in 6.2 mi West 4.6 mph - N/A   Partly Cloudy
12:30 PM 68.0 °F - 46.4 °F 46% 29.71 in - NE 4.6 mph - N/A   Clear
1:00 PM 69.8 °F - 48.2 °F 46% 29.71 in - Variable 3.5 mph - N/A   Clear
1:30 PM 73.4 °F - 50.0 °F 44% 29.68 in - Variable 3.5 mph - N/A   Clear
2:00 PM 69.8 °F - 46.4 °F 43% 29.68 in 6.2 mi Variable 2.3 mph - N/A Rain , Thunderstorm Light Thunderstorms and Rain
2:30 PM 69.8 °F - 48.2 °F 46% 29.68 in 6.2 mi NNE 6.9 mph - N/A Rain Light Rain Showers
3:00 PM 69.8 °F - 44.6 °F 40% 29.68 in 6.2 mi North 9.2 mph - N/A Thunderstorm Scattered Clouds
3:30 PM 71.6 °F - 44.6 °F 38% 29.68 in 6.2 mi North 9.2 mph - N/A   Scattered Clouds
4:00 PM 68.0 °F - 44.6 °F 43% 29.68 in 6.2 mi North 11.5 mph - N/A   Scattered Clouds
4:30 PM 66.2 °F - 46.4 °F 49% 29.68 in 6.2 mi NE 8.1 mph - N/A Thunderstorm Thunderstorm
5:00 PM 66.2 °F - 46.4 °F 49% 29.68 in 6.2 mi SSE 6.9 mph - N/A Rain Light Rain Showers
5:30 PM 68.0 °F - 46.4 °F 46% 29.68 in 6.2 mi ESE 5.8 mph - N/A   Scattered Clouds
6:00 PM 68.0 °F - 46.4 °F 46% 29.68 in 6.2 mi North 4.6 mph - N/A   Scattered Clouds
6:30 PM 66.2 °F - 48.2 °F 52% 29.68 in 6.2 mi NNW 9.2 mph - N/A   Scattered Clouds
7:00 PM 64.4 °F - 48.2 °F 56% 29.68 in - NW 8.1 mph - N/A   Clear
7:30 PM 60.8 °F - 50.0 °F 68% 29.68 in - WNW 6.9 mph - N/A   Clear
8:00 PM 60.8 °F - 48.2 °F 63% 29.68 in - NW 6.9 mph - N/A   Clear
8:30 PM 59.0 °F - 48.2 °F 67% 29.68 in - NNW 5.8 mph - N/A   Clear
9:00 PM 59.0 °F - 50.0 °F 72% 29.71 in - NNW 5.8 mph - N/A   Clear
9:30 PM 57.2 °F - 50.0 °F 77% 29.71 in - NNW 5.8 mph - N/A   Clear
10:00 PM 57.2 °F - 50.0 °F 77% 29.71 in - WNW 4.6 mph - N/A   Clear
10:30 PM 57.2 °F - 50.0 °F 77% 29.71 in - NNW 5.8 mph - N/A   Clear
11:00 PM 57.2 °F - 50.0 °F 77% 29.71 in - NNW 4.6 mph - N/A   Clear
11:30 PM 55.4 °F - 48.2 °F 77% 29.71 in - Variable 3.5 mph - N/A   Clear